Location: Battlefield Observatory
(36.7579°N, 76.2613°W)
Time: 02:12:53
(UTC-04:00)

Envisat - Visible Passes

Search period start: 23 March 2019 00:00
Search period end: 02 April 2019 00:00
Orbit: 764 x 766 km, 98.2° (Epoch: 22 March)

Date Brightness Start Highest point End Pass type
(mag) Time Alt. Az. Time Alt. Az. Time Alt. Az.
23 Mar 5.3 20:41:22 10° SSW 20:45:28 25° W 20:49:36 10° NW visible
24 Mar 3.7 20:03:35 10° S 20:08:34 58° W 20:13:35 10° NNW visible
25 Mar 6.0 21:08:49 10° WSW 21:11:13 13° W 21:13:39 10° WNW visible
26 Mar 4.9 20:29:42 10° SSW 20:34:12 31° W 20:38:42 10° NW visible
27 Mar 3.3 19:52:17 10° S 19:57:20 75° WSW 20:02:26 10° NNW visible
28 Mar 5.8 20:56:35 10° SW 20:59:55 17° W 21:03:14 10° NW visible
29 Mar 4.4 20:18:10 10° SSW 20:22:55 40° W 20:27:42 10° NNW visible
31 Mar 5.5 20:44:41 10° SW 20:48:36 22° W 20:52:32 10° NW visible
01 Apr 3.9 20:06:44 10° S 20:11:40 52° W 20:16:38 10° NNW visible
